| time (UTC) | temp F | wind direction | speed knots | gust knots | rain 1hr in | rain 24hr in | rain mn in | humidity % | barometer mb |
| 20260505022705 | 53 | 100 | 0.9 | 3.5 | 0.00 | 0.00 | 0.00 | 88 | 1012.5 |
| 20260505021805 | 53 | 95 | 0.9 | 3.5 | 0.00 | 0.00 | 0.00 | 88 | 1012.6 |
| 20260505020905 | 53 | 92 | 0.9 | 5.2 | 0.00 | 0.00 | 0.00 | 88 | 1012.6 |
| 20260505020006 | 53 | 85 | 0.9 | 5.2 | 0.00 | 0.00 | 0.00 | 88 | 1012.6 |
| 20260505015404 | 53 | 84 | 0.9 | 3.5 | 0.00 | 0.00 | 0.00 | 88 | 1012.5 |
| 20260505014503 | 53 | 85 | 1.7 | 6.1 | 0.00 | 0.00 | 0.00 | 88 | 1012.7 |
| 20260505013605 | 53 | 84 | 0.9 | 5.2 | 0.00 | 0.00 | 0.00 | 88 | 1012.9 |
| 20260505012704 | 53 | 95 | 0.9 | 5.2 | 0.00 | 0.00 | 0.00 | 87 | 1012.8 |
| 20260505011804 | 53 | 80 | 0.9 | 3.5 | 0.00 | 0.00 | 0.00 | 87 | 1013.0 |
| 20260505011116 | 53 | 91 | 1.7 | 5.2 | 0.00 | 0.00 | 0.00 | 87 | 1013.1 |
| 20260505010003 | 54 | 86 | 1.7 | 6.1 | 0.00 | 0.00 | 0.00 | 87 | 1013.2 |
| 20260505005403 | 54 | 91 | 1.7 | 5.2 | 0.00 | 0.00 | 0.00 | 87 | 1013.2 |
| 20260505004504 | 54 | 83 | 1.7 | 7.8 | 0.00 | 0.00 | 0.00 | 87 | 1013.2 |
| 20260505003603 | 54 | 91 | 1.7 | 5.2 | 0.00 | 0.00 | 0.00 | 87 | 1013.2 |
| 20260505002705 | 54 | 94 | 1.7 | 6.1 | 0.00 | 0.00 | 0.00 | 87 | 1013.2 |
| 20260505001805 | 54 | 92 | 0.9 | 2.6 | 0.00 | 0.00 | 0.00 | 87 | 1013.2 |
| 20260505000905 | 54 | 90 | 0.9 | 3.5 | 0.00 | 0.00 | 0.00 | 86 | 1013.3 |
| 20260505000003 | 55 | 84 | 1.7 | 5.2 | 0.00 | 0.00 | 0.00 | 86 | 1013.4 |
| 20260504235405 | 55 | 88 | 1.7 | 4.3 | 0.00 | 0.00 | 0.00 | 85 | 1013.3 |
| 20260504234503 | 56 | 69 | 0.9 | 3.5 | 0.00 | 0.00 | 0.00 | 84 | 1013.3 |
| 20260504233603 | 56 | 15 | 0.9 | 4.3 | 0.00 | 0.00 | 0.00 | 81 | 1013.2 |
| 20260504232703 | 56 | 32 | 0.9 | 4.3 | 0.00 | 0.00 | 0.00 | 81 | 1013.4 |
| 20260504232015 | 56 | 43 | 0.9 | 3.5 | 0.00 | 0.00 | 0.00 | 81 | 1013.4 |
| 20260504230904 | 56 | 46 | 0.9 | 7.0 | 0.00 | 0.00 | 0.00 | 81 | 1013.5 |
| 20260504230005 | 56 | 58 | 0.9 | 6.1 | 0.00 | 0.00 | 0.00 | 80 | 1013.4 |
| 20260504225403 | 56 | 35 | 0.9 | 7.8 | 0.00 | 0.00 | 0.00 | 80 | 1013.5 |
| 20260504224505 | 56 | 34 | 0.9 | 4.3 | 0.00 | 0.00 | 0.00 | 80 | 1013.5 |
| 20260504223816 | 56 | 16 | 0.9 | 4.3 | 0.00 | 0.00 | 0.00 | 80 | 1013.5 |
| 20260504222918 | 56 | 11 | 0.9 | 4.3 | 0.00 | 0.00 | 0.00 | 80 | 1013.6 |
| 20260504221804 | 56 | 11 | 0.9 | 4.3 | 0.00 | 0.00 | 0.00 | 81 | 1013.6 |
| 20260504221118 | 56 | 37 | 0.9 | 4.3 | 0.00 | 0.00 | 0.00 | 81 | 1013.6 |
| 20260504220215 | 56 | 30 | 0.9 | 5.2 | 0.00 | 0.00 | 0.00 | 81 | 1013.6 |
| 20260504215405 | 57 | 36 | 0.9 | 4.3 | 0.00 | 0.00 | 0.00 | 83 | 1013.6 |
| 20260504214505 | 57 | 73 | 0.0 | 1.7 | 0.00 | 0.00 | 0.00 | 84 | 1013.7 |
| 20260504213603 | 57 | 73 | 0.0 | 1.7 | 0.00 | 0.00 | 0.00 | 84 | 1013.7 |
| 20260504212705 | 57 | 73 | 0.0 | 1.7 | 0.00 | 0.00 | 0.00 | 84 | 1013.6 |
| 20260504211805 | 57 | 74 | 0.0 | 1.7 | 0.00 | 0.00 | 0.00 | 84 | 1013.6 |
| 20260504210905 | 57 | 73 | 0.9 | 3.5 | 0.00 | 0.00 | 0.00 | 83 | 1013.6 |
| 20260504210004 | 57 | 58 | 0.9 | 4.3 | 0.00 | 0.00 | 0.00 | 83 | 1013.6 |
| 20260504205405 | 57 | 70 | 0.9 | 4.3 | 0.00 | 0.00 | 0.00 | 82 | 1013.6 |
| 20260504204505 | 58 | 79 | 0.9 | 3.5 | 0.00 | 0.00 | 0.00 | 82 | 1013.6 |
| 20260504203605 | 58 | 78 | 0.9 | 2.6 | 0.00 | 0.00 | 0.00 | 81 | 1013.6 |
| 20260504202705 | 58 | 78 | 0.9 | 2.6 | 0.00 | 0.00 | 0.00 | 80 | 1013.7 |
| 20260504202017 | 58 | 78 | 0.0 | 2.6 | 0.00 | 0.00 | 0.00 | 80 | 1013.7 |
| 20260504201114 | 58 | 79 | 0.9 | 1.7 | 0.00 | 0.00 | 0.00 | 80 | 1013.6 |
| 20260504200005 | 58 | 76 | 0.9 | 3.5 | 0.00 | 0.00 | 0.00 | 80 | 1013.6 |
| 20260504195618 | 58 | 74 | 0.9 | 2.6 | 0.00 | 0.00 | 0.00 | 80 | 1013.6 |
| 20260504194505 | 58 | 76 | 0.9 | 2.6 | 0.00 | 0.00 | 0.00 | 80 | 1013.5 |
| 20260504193813 | 58 | 68 | 0.9 | 2.6 | 0.00 | 0.00 | 0.00 | 79 | 1013.4 |
| 20260504192705 | 58 | 61 | 0.9 | 2.6 | 0.00 | 0.00 | 0.00 | 79 | 1013.3 |
| 20260504191806 | 58 | 47 | 0.9 | 3.5 | 0.00 | 0.00 | 0.00 | 79 | 1013.2 |
| 20260504190905 | 58 | 76 | 0.9 | 3.5 | 0.00 | 0.00 | 0.00 | 79 | 1013.2 |
| 20260504190005 | 58 | 60 | 0.9 | 3.5 | 0.00 | 0.00 | 0.00 | 79 | 1013.2 |
| 20260504185618 | 58 | 48 | 0.9 | 3.5 | 0.00 | 0.00 | 0.00 | 79 | 1013.2 |
| 20260504184716 | 59 | 32 | 0.9 | 3.5 | 0.00 | 0.00 | 0.00 | 78 | 1013.1 |
| 20260504183603 | 59 | 28 | 0.9 | 3.5 | 0.00 | 0.00 | 0.00 | 78 | 1013.1 |
| 20260504182916 | 59 | 355 | 0.9 | 5.2 | 0.00 | 0.00 | 0.00 | 77 | 1013.2 |
| 20260504181804 | 60 | 70 | 0.9 | 2.6 | 0.00 | 0.00 | 0.00 | 77 | 1013.2 |
| 20260504180903 | 60 | 50 | 0.9 | 3.5 | 0.00 | 0.00 | 0.00 | 76 | 1013.1 |
| 20260504180005 | 60 | 38 | 0.9 | 2.6 | 0.00 | 0.00 | 0.00 | 77 | 1013.1 |
| 20260504175614 | 60 | 28 | 0.9 | 3.5 | 0.00 | 0.00 | 0.00 | 76 | 1013.0 |
| 20260504174504 | 60 | 60 | 0.9 | 8.7 | 0.00 | 0.00 | 0.00 | 76 | 1012.9 |
| 20260504173605 | 60 | 54 | 1.7 | 7.0 | 0.00 | 0.00 | 0.00 | 76 | 1012.9 |
| 20260504172703 | 60 | 21 | 1.7 | 7.0 | 0.00 | 0.00 | 0.00 | 76 | 1012.8 |
| 20260504171804 | 60 | 50 | 1.7 | 6.1 | 0.00 | 0.00 | 0.00 | 76 | 1012.8 |
| 20260504171116 | 60 | 34 | 1.7 | 6.1 | 0.00 | 0.00 | 0.00 | 76 | 1012.8 |
| 20260504160214 | 61 | 13 | 2.6 | 7.0 | 0.00 | 0.00 | 0.00 | 75 | 1012.8 |
| 20260504151117 | 61 | 50 | 1.7 | 4.3 | 0.00 | 0.00 | 0.00 | 75 | 1013.2 |
| 20260504140905 | 60 | 49 | 0.9 | 2.6 | 0.00 | 0.00 | 0.00 | 77 | 1013.4 |
| 20260504081803 | 55 | 42 | 0.9 | 4.3 | 0.00 | 0.00 | 0.00 | 86 | 1013.0 |
| 20260504081116 | 55 | 46 | 0.9 | 3.5 | 0.00 | 0.00 | 0.00 | 87 | 1013.0 |
| 20260504050006 | 54 | 239 | 0.0 | 0.9 | 0.00 | 0.00 | 0.00 | 92 | 1011.2 |
| 20260504045405 | 53 | 239 | 0.0 | 0.9 | 0.00 | 0.00 | 0.00 | 92 | 1011.1 |
| 20260504044503 | 53 | 239 | 0.0 | 0.9 | 0.00 | 0.00 | 0.00 | 92 | 1011.1 |
| 20260504043817 | 53 | 0 | 0.0 | 0.0 | 0.00 | 0.00 | 0.00 | 92 | 1011.1 |
| 20260504042705 | 53 | 0 | 0.0 | 0.0 | 0.00 | 0.00 | 0.00 | 92 | 1011.1 |
| 20260504042016 | 53 | 239 | 0.0 | 0.9 | 0.00 | 0.00 | 0.00 | 92 | 1011.1 |
| 20260504041114 | 53 | 239 | 0.0 | 0.9 | 0.00 | 0.00 | 0.00 | 92 | 1011.1 |
| 20260504040005 | 53 | 239 | 0.0 | 0.9 | 0.00 | 0.00 | 0.00 | 92 | 1011.1 |
| 20260504035404 | 53 | 240 | 0.0 | 0.9 | 0.00 | 0.00 | 0.00 | 92 | 1011.1 |
| 20260504034715 | 53 | 239 | 0.0 | 0.9 | 0.00 | 0.00 | 0.00 | 92 | 1011.1 |
| 20260504033818 | 53 | 0 | 0.0 | 0.0 | 0.00 | 0.00 | 0.00 | 91 | 1011.1 |
| 20260504032705 | 53 | 240 | 0.0 | 0.9 | 0.00 | 0.00 | 0.00 | 91 | 1011.0 |
| 20260504032017 | 53 | 239 | 0.0 | 1.7 | 0.00 | 0.00 | 0.00 | 91 | 1011.1 |
| 20260504031114 | 53 | 240 | 0.0 | 2.6 | 0.00 | 0.00 | 0.00 | 91 | 1011.1 |
| 20260504030005 | 53 | 240 | 0.0 | 1.7 | 0.00 | 0.00 | 0.00 | 91 | 1011.1 |
| 20260504025405 | 53 | 239 | 0.0 | 2.6 | 0.00 | 0.00 | 0.00 | 90 | 1011.1 |
| 20260504024505 | 53 | 240 | 0.0 | 1.7 | 0.00 | 0.00 | 0.00 | 90 | 1011.0 |
| 20260504023606 | 54 | 240 | 0.0 | 3.5 | 0.00 | 0.00 | 0.00 | 90 | 1011.0 |